COSMOS 2460 (GLONASS)

Satellite information

Favourite Embed

Satellite Type and Status

PAYLOADIN ORBIT

Key statistics

Satellite COSMOS 2460 (GLONASS) at a glance.

Uptime

5769

Days in orbit

Revolutions

≈ 2.1

Per day

Orbit

MEO

Medium Earth Orbit

Inclination

65.5

Latest

Satellite identification and parameters

Extended collection of information and parameters for COSMOS 2460 (GLONASS).

Object identification

Identified? True

Debris? False

Object name: COSMOS 2460 (GLONASS)

International designator: 2010-007C

Object number (NORAD): 36402

Object ID (CCSDS): 36402

Country: COMMONWEALTH OF INDEPENDENT STATES (CIS)

Current information (Y/N): Y

RCS size: LARGE

Orbital parameters

Period: 675.72 minutes

Inclination: 65.5278 deg

SMA: 25507.695 km

Apoapsis: 19136.361 km

Periapsis: 19122.759 km

RAAN: 320.6882 deg

Eccentricy: 0.00026664

Argument of periapsis: 275.3459 deg

Mean anomaly: 111.58 deg

Mean motion: 2.13106127 rev/day

Mean motion (dot): -0.00000067 rev/day2

B* drag term: 0.0 1/REarth

Two-line elements (TLE)

Creation date: Dec. 15, 2025, 8:47 p.m.

Reference frame: TEME

Reference center: EARTH

Epoch: Dec. 15, 2025, 5:47 a.m. UTC

TLE line 0: 0 COSMOS 2460 (GLONASS)

TLE line 1: 1 36402U 10007C 25349.24098065 -.00000067 00000-0 00000-0 0 9994

TLE line 2: 2 36402 65.5278 320.6882 0002666 275.3459 111.5800 2.13106127122817

Live tracking on map

Real-time ground track for satellite COSMOS 2460 (GLONASS).

In-orbit conjunctions

There are no conjunctions computed for COSMOS 2460 (GLONASS), at the moment. Check back to stay up to date, as we update our databases every day.

Go to all conjunctions

Associated space launch

Glonass-M, also known as Uragan-M, are the second generation of Uragan satellite design used for GLONASS satellite navigation system. GLONASS is a Russian space-based navigation system comparable to the similar GPS and Galileo systems. This generation improves on accuracy, power consumption and design life. Each satellite weighs 1415 kg, is equipped with 12 L-band antennas, and has an operational lifetime of 7 years.

COSMOS 2460 (GLONASS) was lifted into orbit during the mission ‘Proton-M/DM-2 Enhanced | 3 x Glonass-M (Kosmos 2459, Kosmos 2460, Kosmos 2461)’, on board a Proton-M space rocket.

The launch took place on March 1, 2010, 9:19 p.m. from 81/24 (81P).

For more information about the launch, click the button.

Launch to space Proton-M/DM-2 Enhanced | 3 x Glonass-M (Kosmos 2459, Kosmos 2460, Kosmos 2461)
Proton-M/DM-2 Enhanced | 3 x Glonass-M (Kosmos 2459, Kosmos 2460, Kosmos 2461)

Agency: N/A

Status: Launch Successful

Launch date: March 1, 2010, 9:19 p.m. UTC

Rocket: Proton-M

Launch pad: 81/24 (81P)

Location: Baikonur Cosmodrome, Republic of Kazakhstan

...

Latest news about this satellite

There are no fresh news available about this satellite. Check back as we update our databases every day.


Newsletter sign-up

Weekly statistics, charts and insights to help you stay on top of the space industry.